Probability
0 0 0 0 0 0 0 0 0 0 0 0 0 0 0 0 0 29 81 97 87 81 94 100 100 100 100 100 100 100 100 100 100 100 100 100 100 100 100 100 100 100 100 100 100 100 100 100 100
0 0 0 0 0 0 0 0 0 0 0 0 0 0 0 3 16 58 77 90 97 90 94 94 100 100 100 100 100 100 100 100 100 100 100 100 100 100 100 100 100 100 100 100 100 100 100 100 100
0 0 0 0 0 0 0 0 0 0 0 0 0 0 0 13 39 74 81 90 97 94 94 100 100 100 100 100 100 100 100 100 100 100 100 100 100 100 100 100 100 100 100 100 100 100 100 97 97
0 0 0 0 0 0 0 0 0 0 0 0 0 0 16 23 61 77 94 97 97 90 94 100 100 100 100 100 100 100 100 100 100 100 100 100 100 100 100 100 100 100 100 100 100 97 97 97 100
0 0 0 0 0 0 0 0 0 0 0 0 3 3 23 52 61 90 94 97 97 94 94 100 100 100 100 100 100 100 100 100 100 100 100 100 100 100 100 100 100 100 100 100 97 94 97 97 94
0 0 0 0 0 0 0 0 0 0 0 0 3 3 16 74 81 94 94 100 97 97 94 100 100 100 100 100 100 100 100 100 100 100 100 100 100 100 100 100 100 100 100 97 94 90 84 77 81
0 0 0 0 0 0 0 0 0 0 0 0 3 3 19 81 87 97 94 100 97 90 97 100 100 100 100 100 100 100 100 100 100 100 100 100 100 100 100 100 100 97 97 90 74 68 61 58 61
0 0 0 0 0 0 0 0 0 0 0 0 0 3 6 84 97 97 97 100 100 97 97 100 100 97 97 97 97 97 100 100 100 100 100 100 100 100 100 100 100 94 87 68 65 61 58 52 52
0 0 0 0 0 0 0 0 0 0 0 0 0 10 29 87 94 97 100 97 100 100 97 94 100 97 97 97 97 97 97 97 100 100 100 100 94 87 94 90 97 84 81 68 65 61 61 48 26
0 0 0 0 0 0 0 0 0 0 0 0 3 13 45 74 94 100 100 97 97 100 97 94 94 97 97 97 97 97 97 97 97 97 100 94 94 90 55 90 90 84 77 65 58 65 55 26 26
0 0 0 0 0 0 0 0 0 0 0 0 0 6 42 68 84 94 100 100 97 97 97 94 94 97 97 94 97 97 94 94 94 100 97 100 97 90 58 81 90 94 81 61 87 55 26 13 26
0 0 0 0 0 0 0 0 0 0 0 0 0 6 26 55 74 84 90 94 97 97 97 94 90 90 97 90 94 97 97 94 94 100 100 97 97 81 77 94 61 77 81 58 48 48 29 32 26
0 0 0 0 0 0 0 0 0 0 3 0 3 13 29 35 58 81 90 90 90 97 90 90 94 90 94 94 90 94 97 97 90 100 97 94 84 81 81 81 94 48 58 81 74 61 61 55 52
0 0 0 0 0 0 0 0 0 3 6 6 10 10 23 32 39 71 94 97 100 97 90 87 84 84 84 90 97 97 100 100 90 97 94 94 90 94 94 94 100 87 84 81 71 61 84 77 55
0 0 0 0 0 0 0 0 0 6 6 10 13 13 19 29 45 74 94 97 94 90 94 84 81 74 77 74 81 97 94 94 90 87 94 94 94 94 97 94 94 90 90 90 94 77 71 71 48
0 0 0 0 0 0 0 0 0 6 6 10 13 19 32 35 35 65 87 87 90 90 90 77 77 77 77 74 71 74 77 84 87 74 84 90 84 94 97 94 90 94 97 94 94 84 71 68 52
0 0 0 0 0 0 0 0 0 3 6 6 16 23 35 29 45 58 77 84 84 84 81 74 71 77 74 74 68 65 71 74 74 77 84 84 84 84 87 94 94 94 90 87 74 74 74 61 65
0 0 0 0 0 3 3 0 3 10 10 10 10 16 19 26 42 48 71 74 81 77 77 71 71 71 71 65 61 65 61 58 61 65 74 77 81 81 84 94 81 84 77 77 77 81 65 58 48
0 0 0 0 3 0 0 6 13 10 13 16 16 23 29 39 39 45 58 68 68 74 77 77 71 68 68 55 52 58 52 48 48 55 45 55 55 65 65 65 65 58 61 58 55 45 29 26 32
0 0 0 3 3 3 3 6 16 32 32 42 48 42 48 45 42 45 52 58 61 71 71 71 74 65 61 55 58 52 35 32 26 26 19 29 26 45 39 45 35 39 42 35 32 35 23 16 16
0 0 0 3 6 6 10 16 26 39 58 58 55 52 45 42 39 42 52 45 45 48 45 52 61 61 55 48 35 32 29 16 13 10 10 6 6 10 16 19 16 19 26 23 16 16 23 19 3
0 0 0 3 6 10 6 6 16 35 55 61 52 42 35 32 29 29 29 19 26 29 42 35 39 45 45 42 23 23 16 16 3 3 3 3 3 0 0 0 3 3 3 3 3 6 6 3 3
0 0 0 0 0 0 0 0 10 29 42 52 35 29 23 19 23 19 23 19 13 16 23 26 32 29 23 26 26 26 13 6 0 0 0 0 0 0 0 0 0 0 0 0 0 0 3 3 0
0 0 0 0 0 0 0 0 0 32 32 55 32 23 16 10 6 10 10 6 10 10 10 16 19 19 19 23 6 13 6 0 0 0 0 0 0 0 0 0 0 0 0 0 0 0 0 0 0
0 0 0 0 0 0 0 0 3 42 58 55 35 19 10 3 0 3 6 3 0 0 3 6 10 10 10 6 6 3 3 0 0 0 0 0 0 0 0 0 0 0 0 0 0 0 0 0 0
0 0 0 0 0 0 0 0 45 58 65 42 29 16 10 3 0 0 0 0 0 0 0 0 0 0 3 3 0 0 3 0 0 0 0 0 0 0 0 0 0 0 0 0 0 0 0 0 0
0 0 0 0 0 0 0 6 58 52 35 29 23 16 6 3 0 0 0 0 0 0 0 0 0 0 0 0 0 0 0 0 0 0 0 0 0 0 0 0 0 0 0 0 0 0 0 0 0
0 0 0 0 0 0 0 0 3 48 42 26 16 13 6 0 0 0 0 0 0 0 0 0 0 0 0 0 0 0 0 0 0 0 0 0 0 0 0 0 0 0 0 0 0 0 0 0 0
0 0 0 0 0 0 0 0 13 48 45 29 16 10 0 0 0 0 0 0 0 0 0 0 0 0 0 0 0 0 0 0 0 0 0 0 0 0 0 0 0 0 0 0 0 0 0 0 0
0 0 0 0 0 0 0 3 29 48 39 32 13 3 0 0 0 0 0 0 0 0 0 0 0 0 0 0 0 0 0 0 0 0 0 0 0 0 0 0 0 0 0 0 0 0 0 0 0
Height
5881 5882 5884 5886 5888 5889 5890 5889 5888 5888 5889 5890 5891 5892 5893 5893 5895 5897 5895 5893 5894 5895 5895 5896 5896 5897 5897 5898 5899 5900 5901 5901 5902 5902 5902 5902 5903 5903 5904 5904 5904 5905 5905 5905 5905 5905 5905 5905 5905
5878 5879 5881 5883 5885 5886 5888 5886 5885 5885 5885 5886 5888 5889 5890 5890 5891 5891 5890 5891 5891 5892 5892 5893 5894 5895 5895 5896 5897 5898 5899 5899 5900 5900 5900 5901 5901 5901 5902 5903 5903 5903 5903 5903 5904 5904 5904 5904 5904
5873 5874 5877 5879 5881 5883 5885 5881 5881 5881 5882 5883 5885 5886 5887 5887 5888 5888 5888 5888 5888 5889 5889 5891 5892 5893 5893 5894 5895 5896 5896 5897 5898 5898 5898 5899 5899 5900 5900 5901 5901 5901 5902 5902 5902 5902 5902 5902 5903
5869 5870 5873 5875 5876 5878 5879 5877 5877 5877 5879 5880 5881 5883 5884 5884 5885 5885 5885 5885 5885 5886 5887 5888 5889 5890 5891 5892 5893 5893 5894 5894 5895 5896 5896 5897 5898 5898 5898 5899 5899 5900 5900 5900 5900 5901 5901 5901 5901
5864 5866 5868 5869 5871 5873 5873 5872 5872 5874 5875 5876 5878 5879 5880 5881 5881 5882 5882 5882 5883 5883 5884 5885 5886 5888 5889 5889 5890 5891 5891 5892 5892 5893 5894 5895 5896 5896 5897 5897 5897 5898 5898 5899 5899 5899 5899 5900 5900
5860 5861 5863 5864 5866 5867 5867 5867 5868 5869 5871 5872 5874 5876 5877 5877 5878 5878 5879 5879 5879 5880 5881 5882 5883 5884 5885 5886 5887 5888 5889 5889 5890 5891 5891 5892 5893 5894 5895 5895 5896 5896 5896 5897 5898 5898 5898 5898 5899
5857 5857 5858 5859 5860 5861 5862 5861 5863 5864 5866 5867 5869 5871 5873 5874 5874 5875 5876 5876 5876 5877 5878 5878 5879 5881 5882 5883 5884 5885 5885 5886 5887 5888 5889 5890 5891 5892 5893 5893 5894 5894 5895 5895 5896 5896 5896 5897 5897
5851 5853 5853 5853 5854 5855 5855 5856 5857 5859 5860 5862 5865 5868 5869 5870 5871 5872 5872 5873 5873 5874 5874 5874 5875 5876 5878 5879 5880 5881 5882 5883 5883 5884 5885 5886 5887 5888 5890 5890 5891 5892 5893 5893 5894 5894 5895 5895 5896
5846 5848 5848 5848 5848 5849 5849 5850 5852 5853 5856 5857 5860 5862 5864 5866 5867 5868 5868 5869 5869 5870 5869 5869 5871 5872 5873 5875 5876 5877 5878 5879 5880 5881 5882 5883 5884 5885 5887 5888 5889 5890 5890 5891 5892 5892 5893 5893 5894
5841 5842 5842 5842 5842 5843 5843 5844 5846 5848 5850 5852 5855 5857 5859 5861 5863 5864 5864 5864 5865 5865 5866 5866 5867 5868 5869 5871 5872 5873 5874 5875 5876 5877 5878 5879 5881 5882 5883 5884 5885 5887 5888 5888 5889 5890 5890 5891 5891
5836 5836 5836 5836 5836 5837 5837 5838 5839 5842 5844 5847 5848 5850 5853 5856 5858 5859 5860 5860 5860 5861 5861 5862 5863 5863 5864 5866 5868 5870 5871 5871 5873 5874 5874 5875 5877 5878 5880 5881 5882 5883 5885 5886 5886 5887 5888 5888 5889
5831 5830 5830 5830 5830 5831 5831 5832 5833 5835 5838 5839 5841 5844 5847 5850 5852 5854 5855 5856 5856 5856 5857 5857 5858 5858 5860 5861 5863 5865 5866 5868 5869 5870 5870 5872 5873 5875 5876 5877 5878 5880 5881 5883 5883 5884 5885 5886 5886
5825 5825 5824 5824 5824 5824 5825 5826 5827 5828 5830 5832 5835 5838 5841 5844 5847 5848 5850 5851 5851 5852 5852 5853 5854 5854 5855 5856 5858 5861 5863 5864 5865 5866 5867 5868 5869 5871 5872 5873 5875 5876 5877 5879 5880 5881 5882 5883 5883
5820 5819 5819 5818 5818 5818 5819 5820 5821 5822 5823 5825 5828 5832 5835 5838 5840 5843 5845 5846 5847 5847 5848 5848 5849 5850 5851 5852 5854 5857 5858 5859 5860 5862 5863 5864 5865 5867 5868 5870 5871 5872 5873 5875 5876 5877 5878 5879 5879
5814 5814 5814 5813 5813 5813 5814 5814 5814 5815 5817 5819 5822 5826 5828 5831 5834 5837 5839 5841 5842 5842 5843 5843 5844 5846 5847 5848 5850 5852 5854 5854 5856 5857 5859 5860 5862 5863 5864 5865 5867 5868 5869 5870 5871 5872 5873 5875 5875
5808 5809 5809 5807 5807 5807 5809 5810 5808 5809 5811 5813 5816 5819 5822 5825 5828 5830 5833 5835 5837 5838 5838 5838 5840 5842 5843 5844 5845 5847 5848 5850 5852 5853 5853 5855 5856 5857 5858 5860 5862 5863 5864 5866 5867 5868 5869 5870 5871
5803 5804 5803 5801 5801 5801 5802 5803 5803 5803 5805 5807 5810 5812 5815 5818 5821 5824 5827 5829 5832 5833 5834 5835 5837 5837 5839 5840 5841 5841 5842 5844 5846 5848 5849 5850 5851 5853 5853 5855 5856 5858 5859 5861 5862 5863 5864 5865 5865
5799 5799 5798 5797 5795 5796 5796 5796 5797 5797 5799 5800 5803 5806 5808 5811 5815 5818 5820 5823 5826 5828 5829 5831 5832 5833 5834 5835 5836 5836 5838 5839 5840 5841 5842 5844 5845 5847 5848 5849 5851 5852 5854 5855 5856 5857 5858 5859 5860
5793 5793 5793 5791 5790 5790 5790 5790 5791 5791 5793 5794 5796 5799 5801 5804 5808 5811 5814 5817 5820 5822 5824 5826 5828 5829 5829 5830 5830 5831 5833 5834 5835 5835 5836 5837 5838 5840 5842 5844 5845 5846 5847 5849 5850 5851 5852 5853 5854
5788 5788 5788 5786 5785 5785 5785 5785 5784 5785 5786 5788 5790 5792 5794 5798 5801 5804 5808 5811 5814 5816 5819 5820 5822 5823 5825 5825 5825 5826 5827 5828 5829 5830 5830 5831 5833 5834 5835 5837 5838 5839 5841 5842 5843 5844 5846 5846 5847
5783 5783 5782 5781 5780 5779 5780 5780 5779 5780 5781 5782 5783 5785 5787 5790 5794 5797 5801 5804 5807 5810 5813 5815 5816 5818 5819 5820 5820 5821 5821 5821 5823 5823 5824 5825 5825 5826 5828 5830 5831 5833 5834 5835 5836 5838 5839 5840 5841
5778 5777 5777 5776 5776 5777 5777 5778 5776 5775 5775 5776 5778 5779 5781 5784 5787 5790 5794 5797 5800 5803 5806 5808 5809 5811 5813 5814 5815 5815 5815 5815 5817 5817 5817 5817 5818 5820 5821 5823 5824 5826 5827 5828 5830 5831 5832 5833 5834
5773 5772 5771 5771 5771 5771 5772 5773 5774 5770 5770 5771 5773 5774 5776 5778 5781 5784 5787 5790 5793 5796 5799 5801 5803 5805 5806 5807 5808 5809 5809 5810 5810 5810 5811 5811 5811 5812 5814 5815 5817 5818 5820 5821 5823 5824 5825 5826 5826
5768 5767 5766 5766 5766 5767 5768 5769 5769 5767 5767 5768 5769 5770 5772 5774 5776 5778 5781 5784 5787 5790 5793 5795 5797 5799 5800 5801 5802 5803 5803 5804 5804 5804 5805 5804 5804 5805 5806 5808 5810 5811 5812 5814 5816 5817 5818 5818 5818
5763 5764 5765 5764 5764 5765 5764 5764 5764 5763 5763 5764 5765 5766 5768 5769 5771 5773 5776 5779 5782 5784 5787 5789 5791 5793 5794 5795 5796 5797 5797 5798 5798 5799 5799 5798 5798 5799 5800 5801 5802 5804 5805 5807 5808 5809 5810 5810 5811
5760 5760 5762 5762 5763 5762 5759 5759 5759 5759 5760 5760 5761 5762 5764 5765 5767 5769 5771 5773 5775 5778 5781 5783 5785 5786 5788 5790 5791 5792 5792 5792 5793 5793 5793 5792 5792 5793 5794 5795 5796 5797 5798 5800 5801 5801 5802 5803 5803
5756 5756 5757 5757 5757 5757 5756 5755 5754 5754 5756 5756 5757 5758 5760 5761 5762 5764 5766 5768 5770 5772 5774 5777 5779 5781 5782 5784 5785 5786 5787 5787 5788 5788 5788 5787 5787 5788 5789 5790 5791 5791 5792 5793 5794 5795 5795 5795 5795
5752 5752 5752 5752 5753 5753 5753 5752 5751 5751 5752 5753 5753 5754 5755 5756 5757 5759 5760 5762 5764 5766 5768 5771 5773 5775 5776 5778 5779 5780 5780 5781 5782 5782 5782 5782 5782 5783 5783 5784 5785 5785 5786 5786 5787 5787 5787 5787 5787
5749 5748 5748 5749 5749 5750 5750 5751 5747 5747 5748 5748 5749 5750 5750 5751 5752 5754 5755 5757 5759 5761 5762 5764 5766 5768 5770 5771 5773 5774 5774 5774 5775 5776 5776 5777 5777 5777 5778 5779 5779 5779 5780 5780 5780 5780 5780 5779 5778
5746 5745 5745 5746 5746 5745 5746 5748 5743 5743 5743 5743 5744 5745 5746 5746 5747 5748 5750 5751 5753 5755 5757 5759 5760 5762 5764 5765 5766 5767 5768 5769 5769 5770 5770 5771 5772 5772 5772 5773 5773 5773 5773 5773 5773 5772 5772 5771 5769
Wind_Speed
20 19 17 16 15 14 14 18 19 20 19 19 18 17 15 14 13 14 14 15 17 18 17 17 17 16 14 13 13 13 13 13 11 10 9 7 6 5 4 4 3 3 3 3 3 2 2 2 1
22 21 20 18 17 15 15 19 20 21 20 19 19 18 17 16 16 15 15 16 18 19 19 18 18 17 16 15 15 15 15 14 13 11 10 9 7 6 5 5 5 4 4 4 4 3 3 3 2
24 24 23 21 19 16 17 21 22 22 20 20 19 19 18 18 17 16 15 16 18 20 19 19 19 18 17 17 16 16 16 15 14 13 11 10 9 8 7 6 6 6 5 5 5 4 4 3 3
25 25 25 24 21 19 22 24 23 23 22 20 19 18 18 19 18 17 16 16 17 19 19 19 20 19 18 18 18 17 17 17 16 14 13 11 10 9 8 8 7 7 7 6 6 6 5 4 4
25 26 26 25 23 23 24 26 26 24 24 22 20 18 19 18 18 18 18 17 18 19 20 20 20 20 19 19 19 18 18 18 17 16 14 13 11 10 10 9 9 8 8 8 7 7 6 5 5
25 26 26 25 25 25 25 27 28 27 26 24 21 19 19 19 18 18 18 18 18 19 19 21 20 20 20 19 19 19 18 18 17 17 15 14 13 12 11 10 10 10 9 9 8 8 7 6 6
24 25 25 26 26 26 27 29 30 29 29 28 25 21 20 19 19 18 17 18 17 18 20 20 21 21 21 21 20 19 19 18 18 17 16 15 14 13 12 12 11 11 10 10 9 9 8 7 7
23 24 25 26 27 27 29 30 31 31 31 30 26 23 22 19 19 19 19 19 17 18 19 20 21 21 22 22 21 20 20 19 18 18 17 16 15 15 14 13 13 12 12 11 11 10 9 9 8
22 23 24 26 27 28 29 30 31 31 31 31 28 26 24 21 19 19 19 20 20 19 19 20 20 21 22 23 22 22 21 20 19 18 18 17 16 16 15 15 14 14 14 13 12 12 11 11 10
21 22 24 26 27 27 28 29 31 31 31 31 30 28 26 23 21 20 20 19 19 20 19 19 21 23 24 24 24 23 23 22 20 19 19 18 17 17 17 16 16 15 15 14 14 14 13 13 12
21 22 24 25 25 26 27 29 30 30 31 31 31 30 28 25 23 21 21 20 20 20 19 20 21 22 24 25 25 24 23 23 22 21 19 19 19 19 18 17 17 17 16 16 16 16 15 15 14
22 22 23 24 25 26 27 28 29 30 30 32 32 31 28 25 24 23 22 21 21 20 19 20 20 21 23 25 25 24 24 23 23 22 21 20 20 20 20 19 18 18 17 17 17 17 17 16 16
22 23 23 24 25 26 26 27 28 28 29 31 31 30 28 27 26 24 24 22 21 22 22 22 21 20 22 23 24 23 23 23 23 24 23 22 21 21 21 21 20 20 19 19 19 19 19 18 18
22 23 24 25 26 26 26 27 27 28 29 30 30 30 29 28 27 26 25 24 23 23 23 22 21 21 21 22 22 23 24 24 24 24 23 23 23 22 22 22 22 22 21 21 21 21 21 21 21
22 23 23 25 25 26 25 25 27 27 27 28 29 29 30 30 29 28 27 26 25 25 24 23 22 21 21 22 21 22 23 24 24 24 25 24 24 24 24 24 24 24 23 23 23 23 22 22 23
22 21 22 25 24 25 24 23 25 25 26 27 29 30 30 31 31 30 30 29 27 27 26 24 23 23 22 22 22 23 23 24 25 25 25 24 25 25 25 26 26 25 25 25 25 25 24 24 24
21 20 20 24 24 23 23 22 24 23 24 26 28 29 31 32 32 32 32 31 29 28 29 27 25 24 23 23 24 25 24 24 25 26 25 25 26 27 27 28 28 27 27 27 27 26 26 26 26
20 19 20 21 23 22 22 23 23 23 23 24 26 29 31 33 34 34 33 32 31 30 29 28 27 26 25 25 24 24 23 25 25 27 26 26 27 27 28 28 28 29 29 28 29 28 28 28 28
19 19 19 21 22 21 22 22 22 22 23 24 25 28 31 33 34 35 34 34 33 32 31 30 28 27 26 25 25 23 23 25 25 26 27 27 27 28 29 29 29 30 31 31 30 31 30 30 30
18 18 18 20 21 21 22 22 21 21 21 21 23 25 29 32 34 35 36 36 36 35 33 31 29 28 27 26 25 24 24 25 25 26 27 28 30 31 30 30 30 30 32 32 32 32 31 30 30
18 18 19 19 20 21 21 20 20 19 19 19 20 23 26 30 33 35 36 36 37 36 35 34 33 31 29 28 27 25 26 26 24 25 26 27 29 31 32 32 32 32 32 33 33 32 32 32 31
17 19 19 19 18 16 19 17 18 18 18 18 19 20 23 27 30 34 36 37 37 37 37 36 34 33 31 29 28 27 26 26 25 25 25 24 26 29 31 32 33 33 33 32 32 32 32 32 33
18 19 19 19 19 18 17 17 17 18 16 16 17 18 19 22 26 30 33 35 36 37 37 36 34 33 30 29 28 28 26 26 25 26 25 24 26 29 31 31 32 32 33 33 33 33 32 33 33
18 18 18 18 16 17 15 16 17 16 15 15 15 16 17 19 22 25 29 32 34 35 35 35 33 33 31 30 29 28 26 25 25 24 23 23 24 26 28 30 31 32 33 34 34 32 32 33 33
16 15 14 14 14 14 15 16 17 16 14 14 15 16 16 17 19 21 24 29 31 32 32 33 32 31 30 29 27 26 25 25 24 22 21 21 22 24 26 28 30 30 31 32 32 32 32 31 32
14 13 13 14 12 13 16 16 16 15 15 14 14 14 16 18 18 19 21 24 28 30 31 31 31 31 30 29 27 26 25 24 22 21 21 21 21 22 24 26 27 29 30 30 30 30 30 31 32
14 13 14 15 14 14 15 17 16 14 14 15 14 14 15 17 18 19 21 22 24 27 29 30 30 30 29 28 27 26 25 23 22 21 21 21 21 22 23 25 25 26 27 28 28 29 30 32 33
13 13 14 13 14 14 14 16 15 14 14 14 14 14 15 17 18 19 20 22 23 25 26 28 29 29 28 28 27 26 25 24 22 20 20 20 19 20 21 24 24 24 26 26 26 27 29 31 33
12 12 12 12 13 13 13 13 13 13 14 15 15 15 16 17 18 19 20 22 22 24 24 26 27 27 26 26 25 24 22 21 21 21 20 19 19 19 20 22 22 23 24 26 27 29 30 32 33
10 10 11 12 13 13 13 15 14 14 14 15 15 15 15 16 17 18 20 22 23 24 25 25 25 25 25 25 25 24 23 22 22 22 21 20 21 21 21 22 23 25 26 28 30 31 32 34 36
Wind_Direction
259 259 258 256 253 253 250 254 256 256 255 255 256 258 259 257 254 253 246 237 224 219 215 210 206 206 208 210 212 215 217 218 216 214 213 213 217 222 227 240 250 255 258 261 261 262 266 258 239
259 259 258 256 253 252 254 256 256 256 256 257 256 257 259 259 259 258 252 241 229 221 217 216 214 213 213 216 218 219 221 222 220 220 220 220 223 225 230 239 245 247 246 246 244 240 237 229 218
259 258 258 257 254 250 248 256 257 259 260 259 258 257 257 259 259 259 254 243 230 224 221 220 220 220 219 219 221 222 223 225 225 224 224 225 226 226 229 236 239 239 238 236 230 227 225 219 214
258 259 258 258 257 252 249 255 258 260 262 262 261 259 257 259 259 257 255 246 234 227 223 224 226 228 226 225 225 225 226 226 227 226 226 227 228 229 229 233 233 233 231 227 224 221 219 216 215
259 259 260 260 258 254 251 253 256 258 262 263 262 261 258 257 258 256 255 249 239 231 229 229 231 232 233 231 229 228 228 227 227 228 227 228 229 229 230 229 229 229 226 223 222 219 218 220 221
259 260 261 262 260 256 254 253 254 255 257 260 261 261 259 258 259 258 258 256 243 238 237 234 235 237 236 234 232 232 231 229 229 229 228 229 229 229 229 227 228 227 224 222 222 221 222 224 223
259 260 261 262 260 258 255 253 253 253 254 256 258 259 259 257 256 258 258 257 251 243 244 242 240 240 239 238 235 233 232 230 229 229 229 229 229 228 228 227 227 227 224 223 223 224 227 227 228
260 261 262 261 261 259 256 255 254 253 253 255 257 258 258 257 256 256 257 258 254 253 252 245 242 242 239 239 237 235 233 231 229 228 229 230 228 227 227 226 227 227 225 224 225 226 228 230 233
263 263 263 261 261 260 258 257 256 256 256 257 257 257 257 257 256 256 258 257 254 255 255 246 243 243 239 238 239 237 234 232 230 229 230 230 230 228 228 228 229 228 227 226 226 227 229 231 236
266 265 263 263 262 261 260 258 257 257 256 256 256 256 255 255 254 256 257 258 254 250 251 250 246 246 241 239 239 236 233 233 231 230 231 231 231 230 230 230 231 231 230 229 228 228 230 233 237
268 267 266 265 263 262 261 258 257 256 254 253 252 253 253 253 252 253 253 253 252 249 248 250 248 246 242 239 237 234 233 232 232 232 232 233 232 232 233 233 234 233 232 232 232 231 232 236 239
271 270 269 268 266 263 261 259 256 254 251 250 249 250 250 249 248 249 249 249 249 247 246 247 246 245 241 238 237 232 233 234 235 231 231 232 232 234 235 237 237 236 235 235 235 235 237 239 242
273 272 271 271 269 266 263 260 258 255 251 250 248 247 244 244 245 245 244 244 245 246 245 243 244 243 240 239 232 232 234 234 236 236 234 233 234 236 236 238 239 239 239 239 238 238 240 243 245
275 274 273 272 271 270 267 264 260 255 252 249 246 242 239 238 240 241 241 243 244 245 242 239 238 238 237 235 233 233 233 235 237 238 238 238 239 238 240 241 242 242 242 241 241 241 243 246 248
279 279 277 274 272 272 270 268 263 257 253 248 244 239 236 235 236 237 239 241 243 242 240 238 236 238 235 234 235 237 237 239 238 241 241 240 241 241 241 243 244 244 244 244 243 244 246 248 250
283 283 281 277 275 274 272 268 264 259 252 246 241 236 233 233 233 234 235 238 240 241 239 238 237 237 237 236 238 241 242 241 240 244 243 243 244 243 243 244 244 244 245 246 246 247 248 249 252
286 283 280 279 276 274 270 265 264 261 253 246 239 235 232 231 231 232 233 235 238 242 242 240 243 243 244 245 244 243 244 244 242 244 244 245 247 245 244 244 245 245 246 247 247 248 248 251 254
282 281 279 278 277 274 271 268 265 262 255 247 240 235 232 229 229 231 232 233 236 238 240 243 246 249 250 251 251 251 250 249 248 247 246 248 249 246 246 245 245 245 246 247 247 248 250 252 254
280 279 277 276 276 274 272 271 268 263 257 251 244 237 233 229 228 229 231 233 235 238 240 244 249 255 259 259 257 257 255 254 254 252 249 248 248 248 245 244 246 247 247 248 249 249 251 253 254
281 279 278 279 278 274 273 272 271 267 261 255 247 240 235 231 228 228 229 232 234 236 239 243 249 254 259 264 265 262 261 261 260 254 251 248 249 248 247 246 246 247 247 248 249 250 252 254 256
285 280 276 276 277 278 276 275 274 269 262 256 249 241 236 232 228 227 228 231 233 235 237 242 247 252 257 262 263 264 268 264 264 259 257 253 251 250 247 248 246 246 248 249 250 252 254 256 258
286 282 279 276 275 274 273 268 269 268 262 255 250 244 239 233 229 226 227 229 232 235 238 242 246 251 255 259 261 262 266 265 264 261 259 260 254 251 248 246 246 247 248 249 252 252 254 257 258
282 279 279 275 272 267 267 267 264 264 260 253 250 244 240 234 229 227 227 229 232 235 238 242 246 251 254 258 260 260 262 266 266 263 261 261 255 251 247 244 246 246 247 249 251 252 255 257 257
283 280 281 280 275 269 262 257 260 262 258 250 246 242 240 236 233 232 230 229 231 235 238 241 245 249 253 257 259 261 261 263 264 264 262 259 255 250 245 243 245 246 245 247 250 252 254 255 258
284 280 282 279 273 269 262 257 256 259 260 253 247 244 243 238 237 237 234 232 232 235 239 243 246 248 252 255 258 260 261 262 260 262 263 260 255 248 244 244 245 245 246 246 248 250 253 257 261
281 271 265 264 265 264 262 258 257 260 260 259 251 248 246 241 237 236 235 233 233 235 238 241 245 249 252 255 257 258 261 261 261 264 266 263 258 251 246 245 244 246 247 247 247 249 253 258 261
280 272 262 259 262 266 263 265 265 255 254 256 253 250 246 241 236 234 233 235 234 235 237 240 244 248 250 251 254 254 256 255 256 257 260 258 252 247 245 243 244 247 246 248 251 255 258 261 264
278 269 265 263 265 263 265 271 268 257 258 263 259 253 250 245 238 235 235 235 236 237 237 238 241 244 246 246 249 252 252 251 252 253 254 255 254 251 251 249 249 251 253 255 257 261 264 266 268
286 279 269 261 257 261 268 269 266 260 259 260 260 256 254 250 242 239 237 237 237 236 237 237 238 240 243 247 249 250 251 251 252 254 255 255 256 257 254 253 255 257 258 259 261 264 266 268 270
281 276 266 261 267 268 265 269 268 268 264 263 258 258 256 251 246 243 238 237 238 236 236 238 240 241 243 246 249 251 250 253 253 254 255 255 255 257 258 259 259 259 260 261 264 266 269 271 273